Regional Weather Roundup
Issued by NWS

Home | Current Version | Previous Version | Text Only | Print | Product List | Glossary Off
Versions: 1 2 3 4 5 6 7 8 9 10 11 12 13 14 15 16 17 18 19 20 21 22 23 24 25 26 27 28 29 30 31 32 33 34 35 36 37 38 39 40 41 42 43 44 45 46 47 48 49 50

000
ASUS43 KBIS 262310
RWRND
NORTH DAKOTA REGIONAL WEATHER ROUNDUP
NATIONAL WEATHER SERVICE EASTERN NORTH DAKOTA/GRAND FORKS ND
600 PM CDT MON JUN 26 2017

  NOTE: "FAIR" INDICATES FEW OR NO CLOUDS BELOW 12,000 FEET WITH NO
  SIGNIFICANT WEATHER AND/OR OBSTRUCTIONS TO VISIBILITY.

NDZ001>003-009>011-017-270000-
...NORTHWEST NORTH DAKOTA...

CITY           SKY/WX    TMP DP  RH WIND       PRES   REMARKS
WILLISTON      FAIR      82  41  23 S12       29.98F
MINOT          FAIR      76  39  26 MISG      30.05F
MINOT AFB      FAIR      76  41  28 S13       30.03F
$$

NDZ018>021-031>035-040>046-270000-
...SOUTHWEST NORTH DAKOTA...

CITY           SKY/WX    TMP DP  RH WIND       PRES   REMARKS
BISMARCK       FAIR      77  43  29 SE7       30.09F
DICKINSON      FAIR      79  27  14 S14G20    30.03F
GARRISON         N/A     75  40  28 S9        30.05F
HETTINGER      FAIR      79  37  22 S15       30.07F
$$

NDZ004>008-012>016-024-026-027-054-270000-
...NORTHEAST NORTH DAKOTA...

CITY           SKY/WX    TMP DP  RH WIND       PRES   REMARKS
GRAND FORKS    FAIR      75  41  29 NW10      30.08F
GRAND FORKS AF FAIR      73  39  29 W5        30.10F
DEVILS LAKE    FAIR      70  40  33 SW6       30.12F
$$

NDZ022-023-025-028>030-036>039-047>053-270000-
...SOUTHEAST NORTH DAKOTA...

CITY           SKY/WX    TMP DP  RH WIND       PRES   REMARKS
JAMESTOWN      FAIR      70  39  32 NW6       30.12F
FARGO          FAIR      74  37  26 W10       30.10F
WAHPETON       MOCLDY    72  34  25 NW10      30.13F
$$




USA.gov is the U.S. government's official web portal to all federal, state and local government web resources and services.